233  
ASUS43 KMKX 211721  
RWRWI  
 
WISCONSIN REGIONAL WEATHER ROUNDUP  
NATIONAL WEATHER SERVICE MILWAUKEE/SULLIVAN WI  
1200 PM CDT SAT OCT 21 2017  
 
NOTE: "FAIR" INDICATES FEW OR NO CLOUDS BELOW 12,000 FEET WITH NO  
SIGNIFICANT WEATHER AND/OR S TO VISIBILITY
.  
 
WIZ001-002-006>008-014>016-023>028-211800-  
NORTHWEST WISCONSIN  
 
CITY SKY/WX TMP DP RH WIND PRES REMARKS
 
SUPERIOR ARPT RAIN 61 58 91 S12 29.68F  
ASHLAND PTSUNNY 65 55 70 S20G37 29.74S  
HAYWARD LGT RAIN 60 56 86 S13G21 29.75R  
SIREN LGT RAIN 60 58 93 S14 29.70S  
CUMBERLAND LGT RAIN 57 55 94 S18G26 29.75R  
RICE LAKE LGT RAIN 59 56 92 SE17G24 29.77S  
CHETEK LGT RAIN 59 57 94 SE16G25 29.77S  
LADYSMITH CLOUDY 60 56 88 S9 29.81F THUNDER  
EAU CLAIRE CLOUDY 62 58 86 S10 29.80R  
MENOMONIE CLOUDY 62 62 99 SE14G20 29.77F  
NEW RICHMOND CLOUDY 60 58 94 S15G22 29.72F  
OSCEOLA CLOUDY 62 62 100 S17G25 29.73S  

 
 
WIZ003>005-009-010-017-018-211800-  
NORTH CENTRAL WISCONSIN  
 
CITY SKY/WX TMP DP RH WIND PRES REMARKS
 
MANITOWISH WTR PTSUNNY 65 55 69 S20 29.82F  
ARBOR VITAE MOSUNNY 63 54 72 S12G22 29.83F  
WOODRUFF MOSUNNY 63 54 72 S12G22 29.83F  
RHINELANDER CLOUDY 63 55 75 S10G18 29.87F  
EAGLE RIVER NOT AVBL  
LAND O LAKES MOSUNNY 66 51 58 S10G17 29.87F  
PHILLIPS CLOUDY 61 55 78 S15G22 29.83R  
TOMAHAWK PTSUNNY 63 53 70 S3 29.86F  
MEDFORD CLOUDY 62 54 73 S13G21 29.85R  
MERRILL CLOUDY 63 56 78 S5 29.88S  

 
 
WIZ029-030-035-036-043>047-211800-  
CENTRAL WISCONSIN  
 
CITY SKY/WX TMP DP RH WIND PRES REMARKS
 
WAUSAU PTSUNNY 65 56 72 S12 29.85F  
MOSINEE MOSUNNY 64 57 77 S9 29.89F  
MARSHFIELD CLOUDY 65 54 67 S15G30 29.84F  
STEVENS POINT CLOUDY 66 56 69 S14 29.87F  
WAUPACA SUNNY 73 53 49 S14 29.92F  
WAUTOMA SUNNY N/A N/A N/A S10G21 29.92F  
WISC RAPIDS PTSUNNY 69 58 67 SW13 29.87F  
CAMP DOUGLAS PTSUNNY 70 55 60 S15G22 29.86F  

 
 
WIZ011>013-019>022-031-037>040-048>050-211800-  
NORTHEAST WISCONSIN  
 
CITY SKY/WX TMP DP RH WIND PRES REMARKS
 
ANTIGO LGT RAIN 62 56 80 S9 29.90F  
SHAWANO SUNNY 72 53 50 S9 29.93F  
OCONTO SUNNY 68 51 55 S12 29.94F  
STURGEON BAY MOSUNNY 63 53 70 S21G31 29.97S  
GREEN BAY SUNNY 70 52 52 S18G26 29.95F  
MANITOWOC MOSUNNY 61 53 75 S14 29.99S  
APPLETON MOSUNNY 70 48 46 S16G23 29.94F  
CLINTONVILLE NOT AVBL  
OSHKOSH SUNNY 69 53 56 S18 29.94F  

 
 
WIZ032>034-041-042-053>061-211800-  
SOUTHWEST WISCONSIN  
 
CITY SKY/WX TMP DP RH WIND PRES REMARKS
 
LA CROSSE CLOUDY 67 56 67 S16G26 29.83S  
SPARTA CLOUDY 67 56 67 S15G25 29.85F  
VIROQUA CLOUDY 65 57 73 S13G18 29.87F  
BOSCOBEL SUNNY 74 55 51 S9G18 29.87F  
PRAIRIE DU CHI PTSUNNY 70 54 55 S5 29.86F  
PLATTEVILLE MOSUNNY 72 57 58 S18 29.91F  

 
 
WIZ056-057-062-063-064-067-068-211800-  
SOUTH CENTRAL WISCONSIN  
 
CITY SKY/WX TMP DP RH WIND PRES REMARKS
 
REEDSBURG SUNNY 71 55 56 S17G25 29.89F  
BARABOO/DELLS SUNNY 69 53 57 S20G26 29.90F  
LONE ROCK SUNNY 73 58 59 S14G21 29.89F  
MINERAL POINT SUNNY 73 55 53 S12 29.92F  
MADISON MOSUNNY 69 55 60 S13 29.94F  
MIDDLETON SUNNY 72 55 55 S15 29.93F  
WATERTOWN MOSUNNY 70 55 58 S14G22 29.97F  
MONROE SUNNY 70 54 56 S21 29.95F  
JANESVILLE MOSUNNY 73 54 49 S14G20 29.97F  

 
 
WIZ051-052-058>065-066-070>072-211800-  
SOUTHEAST WISCONSIN  
 
CITY SKY/WX TMP DP RH WIND PRES REMARKS
 
MILWAUKEE CLOUDY 70 54 56 S13 30.01F  
WAUKESHA SUNNY 66 52 59 S9G23 30.01F  
MILWAUKEE/TIMM SUNNY 66 48 52 S8G17 30.01F  
RACINE CLOUDY 67 54 63 SE13 30.03F  
BURLINGTON MOSUNNY 72 55 54 S16G23 30.00F  
KENOSHA CLOUDY 70 53 54 S15G24 30.02F  
FOND DU LAC SUNNY 70 50 49 S15G23 29.95F  
SHEBOYGAN MOSUNNY 67 55 65 S12 29.98F  
WEST BEND MOSUNNY 68 50 52 S12G20 29.98F  
JUNEAU SUNNY 68 53 58 S14G20 29.97F  

 
 
LSZ147-162-211800-  
LAKE SUPERIOR  
 
STATION/POSITION TIME TEMP WIND PRES WAVE
 
AIR SEA DIR/SP/G HT/PER  
(UTC) (F) (DEG/KT/KT) (MB) (FT/S)  
W MID LAKE BUOY 1650 57 52 1007.1F 2/ 4  
DEVILS ISLAND 1700 64 180/ 6/ 10 1005.8F  
PORT WING 1620 170/ 13 1005.4F  
SAXON HARBOR 1630 68 190/ 10/ 20 1006.1F  

 
 
LMZ867-665-643>646-211800-  
LAKE MICHIGAN  
 
STATION/POSITION TIME TEMP WIND PRES WAVE
 
AIR SEA DIR/SP/G HT/PER  
(UTC) (F) (DEG/KT/KT) (MB) (FT/S)  
S GREEN BAY BUOY 1700 62 58 190/ 10/ 12 1014.1  
N MID LAKE BUOY 1650 61 58 180/ 21/ 25 1015.4F 6/ 6  
NORTHPORT PIER 1640 62 160/ 13/ 20 1014.9S  
KEWAUNEE LAKESHO 1654 54 190/ 11/ 13 1014.6F  
SHEBOYGAN LAKESH 1700 56 180/ 18/ 19 1015.2F  
PORT WASHINGTON 1640 59 180/ 6/ 8 1016.9F  
ATWATER BUOY 1609 56 53 160/ 14/ 16 1016.2F  
MILWAUKEE LAKESH 1700 66 190/ 12/ 14 N/A  
S MID LAKE BUOY 1650 62 60 160/ 19/ 23 1017.9F 4/ 6  
KENOSHA LAKESH 1700 59 180/ 12/ 17 1016.6  

 
 
TC - TEMPERATURE IN CELSIUS  
VSB - VISIBILITY IN STATUTE MILES  
WCI - WIND CHILL INDEX  
HX - HEAT INDEX  
 
 
 
CLICK HERE TO GO TO PREVIOUS BULLETINS.

The Nexlab WI Page Main Text Page